TimeCDT,TemperatureF,Dew PointF,Humidity,Sea Level PressureIn,VisibilityMPH,Wind Direction,Wind SpeedMPH,Gust SpeedMPH,PrecipitationIn,Events,Conditions,WindDirDegrees,DateUTC
12:15 AM,69.8,67.1,91,30.07,10.0,South,8.1,-,N/A,,Clear,180,2013-09-18 05:15:00
12:35 AM,67.5,65.3,93,30.07,10.0,South,5.8,-,N/A,,Clear,180,2013-09-18 05:35:00
12:55 AM,67.5,65.7,94,30.07,10.0,South,5.8,-,N/A,,Clear,180,2013-09-18 05:55:00
1:15 AM,67.3,65.5,94,30.07,10.0,South,6.9,-,N/A,,Clear,180,2013-09-18 06:15:00
1:35 AM,66.6,64.9,95,30.07,10.0,South,5.8,-,N/A,,Clear,180,2013-09-18 06:35:00
1:55 AM,66.4,64.8,95,30.06,10.0,South,5.8,-,N/A,,Clear,170,2013-09-18 06:55:00
2:15 AM,66.6,65.1,95,30.06,10.0,South,5.8,-,N/A,,Clear,170,2013-09-18 07:15:00
2:35 AM,67.3,65.8,95,30.06,10.0,South,6.9,-,N/A,,Clear,180,2013-09-18 07:35:00
2:55 AM,67.5,65.7,94,30.05,10.0,SSW,6.9,-,N/A,,Clear,200,2013-09-18 07:55:00
3:15 AM,67.5,65.3,93,30.05,10.0,South,6.9,-,N/A,,Clear,190,2013-09-18 08:15:00
3:35 AM,67.5,65.3,93,30.04,10.0,SSW,5.8,-,N/A,,Clear,200,2013-09-18 08:35:00
3:55 AM,67.5,65.5,93,30.04,10.0,SSW,5.8,-,N/A,,Clear,200,2013-09-18 08:55:00
4:15 AM,67.5,65.1,92,30.03,10.0,SSW,8.1,-,N/A,,Clear,200,2013-09-18 09:15:00
4:35 AM,67.6,64.9,91,30.03,10.0,SSW,8.1,-,N/A,,Clear,210,2013-09-18 09:35:00
4:55 AM,70.0,66.4,88,30.02,10.0,SSW,9.2,-,N/A,,Clear,200,2013-09-18 09:55:00
5:15 AM,67.8,64.6,89,30.02,10.0,SSW,8.1,-,N/A,,Clear,200,2013-09-18 10:15:00
5:35 AM,67.5,64.4,90,30.02,10.0,SSW,8.1,-,N/A,,Clear,210,2013-09-18 10:35:00
5:55 AM,67.5,64.4,90,30.02,10.0,SSW,9.2,-,N/A,,Clear,210,2013-09-18 10:55:00
6:15 AM,64.9,61.9,90,30.02,10.0,SSW,8.1,-,N/A,,Clear,210,2013-09-18 11:15:00
6:35 AM,64.9,62.1,90,30.02,10.0,SW,6.9,-,N/A,,Clear,220,2013-09-18 11:35:00
6:55 AM,63.7,61.2,91,30.03,10.0,SW,5.8,-,N/A,,Clear,230,2013-09-18 11:55:00
7:15 AM,63.1,61.0,93,30.04,10.0,SW,4.6,-,N/A,,Clear,230,2013-09-18 12:15:00
7:35 AM,63.1,61.2,93,30.04,10.0,SW,5.8,-,N/A,,Clear,220,2013-09-18 12:35:00
7:55 AM,63.1,61.2,93,30.04,10.0,SW,6.9,-,N/A,,Clear,220,2013-09-18 12:55:00
8:15 AM,64.4,62.2,93,30.05,10.0,SSW,6.9,-,N/A,,Clear,210,2013-09-18 13:15:00
8:35 AM,66.9,63.7,89,30.05,10.0,SSW,8.1,-,N/A,,Clear,210,2013-09-18 13:35:00
8:55 AM,68.9,64.9,87,30.05,10.0,SSW,9.2,-,N/A,,Clear,200,2013-09-18 13:55:00
9:15 AM,70.0,65.1,85,30.05,10.0,SSW,11.5,-,N/A,,Clear,210,2013-09-18 14:15:00
9:35 AM,-9999,-9999,N/A,-9999,10.0,North,-9999.0,-,N/A,,Clear,0,2013-09-18 14:35:00
9:55 AM,-9999,-9999,N/A,-9999,-9999.0,North,-9999.0,-,N/A,,Unknown,0,2013-09-18 14:55:00
10:15 AM,-9999,-9999,N/A,-9999,-9999.0,North,-9999.0,-,N/A,,Unknown,0,2013-09-18 15:15:00
10:35 AM,-9999,-9999,N/A,-9999,-9999.0,North,-9999.0,-,N/A,,Unknown,0,2013-09-18 15:35:00
10:55 AM,-9999,-9999,N/A,-9999,-9999.0,North,-9999.0,-,N/A,,Unknown,0,2013-09-18 15:55:00
11:15 AM,-9999,-9999,N/A,-9999,-9999.0,North,-9999.0,-,N/A,,Unknown,0,2013-09-18 16:15:00
11:35 AM,-9999,-9999,N/A,-9999,-9999.0,North,-9999.0,-,N/A,,Unknown,0,2013-09-18 16:35:00
11:55 AM,-9999,-9999,N/A,-9999,-9999.0,North,-9999.0,-,N/A,,Unknown,0,2013-09-18 16:55:00
12:15 PM,80.1,61.3,53,30.04,10.0,SSW,16.1,21.9,N/A,,Unknown,210,2013-09-18 17:15:00
12:35 PM,81.0,60.6,50,30.04,10.0,SSW,18.4,23.0,N/A,,Clear,200,2013-09-18 17:35:00
12:55 PM,81.5,60.6,49,30.02,10.0,SSW,16.1,21.9,N/A,,Clear,200,2013-09-18 17:55:00
1:15 PM,81.5,60.6,49,30.02,10.0,SSW,13.8,20.7,N/A,,Clear,210,2013-09-18 18:15:00
1:35 PM,82.6,62.4,50,30.02,10.0,South,13.8,-,N/A,,Scattered Clouds,190,2013-09-18 18:35:00
1:55 PM,80.6,61.2,51,30.01,10.0,SSW,15.0,21.9,N/A,,Scattered Clouds,200,2013-09-18 18:55:00
2:15 PM,82.0,62.1,51,30.00,10.0,SSW,13.8,19.6,N/A,,Mostly Cloudy,210,2013-09-18 19:15:00
2:35 PM,81.9,61.9,51,29.99,10.0,SSW,15.0,23.0,N/A,,Scattered Clouds,200,2013-09-18 19:35:00
2:55 PM,81.9,61.3,50,29.99,10.0,SSW,15.0,20.7,N/A,,Scattered Clouds,200,2013-09-18 19:55:00
3:15 PM,83.7,61.3,47,29.98,10.0,SSW,15.0,21.9,N/A,,Scattered Clouds,200,2013-09-18 20:15:00
3:35 PM,82.2,60.3,47,29.97,10.0,South,15.0,21.9,N/A,,Scattered Clouds,190,2013-09-18 20:35:00
3:55 PM,83.8,59.7,44,29.96,10.0,SSW,13.8,23.0,N/A,,Scattered Clouds,200,2013-09-18 20:55:00
4:15 PM,83.5,59.5,44,29.95,10.0,SSW,16.1,23.0,N/A,,Clear,200,2013-09-18 21:15:00
4:35 PM,84.4,59.4,43,29.95,10.0,SSW,17.3,23.0,N/A,,Scattered Clouds,200,2013-09-18 21:35:00
4:55 PM,83.7,59.4,44,29.94,10.0,South,12.7,23.0,N/A,,Scattered Clouds,190,2013-09-18 21:55:00
5:15 PM,83.8,59.4,43,29.94,10.0,South,17.3,21.9,N/A,,Scattered Clouds,190,2013-09-18 22:15:00
5:35 PM,83.3,58.8,43,29.94,10.0,South,15.0,19.6,N/A,,Clear,190,2013-09-18 22:35:00
5:55 PM,83.3,58.5,43,29.93,10.0,SSW,15.0,19.6,N/A,,Clear,200,2013-09-18 22:55:00
6:15 PM,82.6,57.9,43,29.93,10.0,South,15.0,20.7,N/A,,Clear,190,2013-09-18 23:15:00
6:35 PM,82.6,59.0,45,29.93,10.0,South,12.7,18.4,N/A,,Clear,170,2013-09-18 23:35:00
6:55 PM,80.6,59.5,49,29.93,10.0,South,13.8,19.6,N/A,,Clear,180,2013-09-18 23:55:00
7:15 PM,80.1,60.4,51,29.93,10.0,South,12.7,-,N/A,,Clear,180,2013-09-19 00:15:00
7:35 PM,77.5,60.1,55,29.93,10.0,South,10.4,-,N/A,,Clear,170,2013-09-19 00:35:00
7:55 PM,77.5,61.7,58,29.94,10.0,South,10.4,-,N/A,,Clear,180,2013-09-19 00:55:00
8:15 PM,75.2,60.1,59,29.94,10.0,South,10.4,-,N/A,,Clear,170,2013-09-19 01:15:00
8:35 PM,75.2,62.2,64,29.94,10.0,South,10.4,-,N/A,,Clear,170,2013-09-19 01:35:00
8:55 PM,75.2,63.3,66,29.95,10.0,South,8.1,-,N/A,,Clear,170,2013-09-19 01:55:00
9:15 PM,74.8,63.7,68,29.96,10.0,South,6.9,-,N/A,,Clear,170,2013-09-19 02:15:00
9:35 PM,71.1,61.9,73,29.97,10.0,South,6.9,-,N/A,,Clear,170,2013-09-19 02:35:00
9:55 PM,70.0,62.1,76,29.99,10.0,South,5.8,-,N/A,,Clear,170,2013-09-19 02:55:00
10:15 PM,70.0,62.2,76,29.99,10.0,South,5.8,-,N/A,,Clear,170,2013-09-19 03:15:00
10:35 PM,70.0,62.6,77,29.99,10.0,South,5.8,-,N/A,,Clear,170,2013-09-19 03:35:00
10:55 PM,70.0,62.6,77,29.99,10.0,South,6.9,-,N/A,,Clear,180,2013-09-19 03:55:00
11:15 PM,70.0,62.8,78,29.99,10.0,South,6.9,-,N/A,,Clear,180,2013-09-19 04:15:00
11:35 PM,70.0,63.1,79,29.99,10.0,South,6.9,-,N/A,,Clear,180,2013-09-19 04:35:00
11:55 PM,70.0,63.0,78,29.99,10.0,SSE,6.9,-,N/A,,Clear,160,2013-09-19 04:55:00